Wind_Speed
12 9 12 12 9 9 11 5 7 15 13 9 19 8 13 13 10 4 14 13 11 10 12 10 10 8 7 6 5 6 7 8 6 7 7 9 14 14 12 8 9 13 16 16 15 12 11 11 11
9 10 14 10 8 10 4 12 16 15 22 17 8 12 7 7 2 6 12 15 15 9 8 9 10 8 5 6 7 8 8 6 8 8 9 13 12 10 7 9 13 15 14 13 12 11 12 13 13
6 11 9 8 11 13 1 16 21 13 4 4 5 7 6 3 4 5 13 13 11 10 11 10 8 7 7 7 8 7 6 9 9 9 11 9 8 7 8 11 14 14 14 13 13 13 14 15 16
13 12 10 9 6 10 6 14 9 9 9 4 7 7 9 6 7 4 10 12 12 12 11 11 9 8 8 9 7 8 9 11 11 9 6 7 7 8 10 11 12 12 13 13 14 15 17 18 18
14 16 13 9 6 6 21 12 14 10 13 11 5 10 2 10 7 7 13 15 13 12 12 10 8 8 6 6 8 10 11 10 6 4 6 6 7 9 10 11 13 14 16 17 18 17 16 16 16
15 13 9 6 10 9 22 16 12 12 14 10 9 7 3 7 7 14 14 16 15 11 10 8 6 4 5 9 10 7 3 2 2 3 4 7 10 11 12 14 16 18 19 20 20 20 19 18 16
14 15 6 5 18 16 14 9 11 10 8 4 3 3 7 11 14 13 14 14 14 11 7 4 2 4 6 4 2 1 2 3 4 5 8 10 9 9 11 15 17 18 18 20 21 22 22 21 19
16 8 6 10 15 19 15 9 6 5 7 7 4 3 5 11 16 12 11 10 8 6 4 2 2 2 3 2 2 3 3 3 5 7 7 8 9 10 13 15 16 16 16 18 21 21 21 22 22
15 6 11 19 15 16 6 13 13 10 7 6 4 1 8 13 14 9 6 5 4 3 2 3 1 2 3 5 3 3 4 5 5 6 6 7 9 12 16 18 19 19 18 19 23 21 20 20 21
8 0 11 19 8 16 14 13 14 11 6 5 5 4 4 4 7 6 4 3 1 2 3 1 3 5 5 4 3 4 3 2 2 3 6 8 12 14 17 21 23 23 23 24 25 23 23 24 23
2 3 6 18 18 9 12 10 7 7 7 2 2 8 2 1 4 5 4 3 2 2 4 7 6 5 4 3 2 3 5 3 5 9 10 13 17 18 20 21 25 27 27 26 28 25 23 25 26
8 7 10 21 15 19 16 11 9 6 6 1 4 8 6 5 5 3 2 1 6 8 8 6 4 2 5 2 3 6 6 8 10 14 18 20 23 22 22 20 25 30 29 30 29 26 26 28 30
10 13 9 11 19 13 13 8 4 6 5 6 2 5 8 12 13 10 10 10 4 4 4 3 7 2 8 7 8 11 11 13 14 18 22 25 27 25 22 23 30 31 31 32 32 33 37 39 37
19 17 9 8 13 13 11 8 9 5 2 3 3 2 6 8 8 7 8 12 14 12 8 8 8 8 7 13 11 15 13 14 16 22 22 25 27 26 25 31 32 32 34 34 38 39 43 43 41
13 7 10 16 18 14 11 8 7 5 2 1 4 1 3 4 1 6 5 7 8 6 5 6 9 10 14 17 17 15 14 17 20 20 21 23 23 24 28 35 39 41 37 38 41 46 45 42 42
8 6 10 15 13 14 12 7 11 7 7 2 5 4 5 6 6 5 4 2 4 4 8 12 18 22 19 11 15 16 16 20 17 19 21 23 25 27 30 37 40 39 38 39 46 48 47 44 43
10 11 7 8 11 8 11 2 14 12 11 7 6 7 10 11 12 12 9 8 10 9 14 21 24 27 27 11 14 19 23 17 16 21 23 28 31 34 36 34 35 38 42 52 49 51 51 49 44
8 12 11 13 8 11 8 6 16 13 13 11 13 14 15 16 17 16 13 12 12 9 17 21 22 26 22 24 24 17 17 17 19 25 29 33 32 35 37 38 40 44 49 52 53 53 49 46 46
6 11 18 20 17 16 14 16 21 18 17 18 21 23 23 22 22 18 17 14 14 15 19 20 21 24 26 22 21 17 18 21 26 30 31 31 33 35 40 41 46 50 51 54 53 47 43 43 46
7 4 14 13 14 15 15 20 19 19 18 18 21 18 17 20 21 18 16 14 14 15 18 19 22 23 17 19 19 21 22 27 29 29 31 34 36 39 42 43 45 51 51 50 46 44 45 46 49
12 17 18 15 11 12 20 14 13 15 16 15 13 12 12 10 8 11 10 12 14 16 17 17 16 15 16 19 20 23 24 25 28 29 31 34 38 42 45 47 51 50 48 46 45 45 48 50 50
15 12 13 13 11 19 15 8 15 17 16 13 12 9 7 1 10 7 12 15 16 13 12 15 14 14 17 18 17 20 21 24 27 30 35 40 43 45 48 51 49 50 43 44 47 46 47 48 49
10 9 9 10 13 13 11 7 19 19 18 17 14 10 7 2 6 6 11 13 16 15 18 17 17 18 17 21 24 27 30 36 38 41 44 46 50 53 50 46 48 44 43 42 43 46 49 49 50
9 9 8 5 7 4 12 7 22 29 26 21 15 10 6 12 6 12 8 9 5 12 14 14 19 24 28 30 32 36 40 44 48 51 54 53 54 47 47 42 52 57 49 43 44 46 47 47 48
7 10 3 1 0 4 5 8 6 28 23 16 12 11 9 3 15 19 15 11 13 17 18 20 27 29 33 35 41 44 48 49 51 54 52 47 46 47 55 53 54 51 51 48 49 49 43 40 40
7 7 4 5 3 2 2 2 2 25 14 12 13 13 6 15 25 20 17 13 15 18 22 25 32 34 33 37 43 47 47 49 49 46 49 51 51 50 52 46 44 49 41 41 45 38 38 42 41
3 6 5 6 4 2 2 4 9 18 17 19 18 13 20 16 18 21 17 16 19 22 26 30 34 35 38 42 48 47 47 48 47 49 52 52 50 45 43 39 46 43 43 48 47 41 38 40 42
5 4 1 3 3 1 3 7 8 21 21 20 18 21 17 17 21 21 20 22 23 26 29 29 35 42 44 44 43 44 46 46 48 50 49 49 48 44 46 45 42 45 49 45 35 34 38 40 37
5 1 2 3 2 5 2 5 15 18 21 21 20 17 16 18 22 23 23 24 26 25 27 35 42 40 40 42 46 46 45 45 46 48 50 50 50 48 50 45 43 43 46 36 32 35 36 33 29
3 3 3 2 4 3 2 4 7 14 20 19 17 16 19 20 23 25 26 25 27 28 33 44 40 39 42 44 43 43 43 45 46 48 47 47 47 43 36 34 37 37 31 28 33 34 29 30 32
Wind_Direction
236 234 225 211 221 225 235 309 210 121 139 134 162 172 173 159 166 217 164 178 194 193 197 192 195 198 200 221 254 295 304 312 311 314 319 316 317 322 331 346 353 353 352 350 354 6 13 11 7
206 212 230 203 224 231 275 194 171 126 109 123 130 126 137 133 108 248 179 179 177 182 168 181 195 189 203 227 267 290 295 305 312 315 311 316 323 330 345 355 351 352 351 353 356 1 354 351 349
201 206 200 179 221 239 279 172 193 205 200 189 124 168 161 191 232 189 167 153 153 150 151 173 182 182 204 237 269 274 279 299 300 306 311 325 343 3 358 352 354 356 1 360 356 354 348 344 338
187 181 191 204 199 234 226 167 215 176 212 253 249 351 303 133 90 122 137 137 133 140 151 168 169 190 219 251 249 269 285 294 297 305 329 359 3 359 358 1 2 5 7 6 4 358 351 345 340
196 186 205 198 269 292 195 189 175 186 163 138 294 263 302 65 69 126 133 135 130 143 158 159 175 208 220 243 267 282 287 291 305 353 0 359 359 5 6 8 11 14 10 6 4 2 355 348 341
175 175 187 245 112 120 149 167 161 168 140 135 154 220 179 112 87 139 130 133 139 151 148 160 178 212 261 274 275 274 281 331 20 2 351 3 6 9 12 13 9 8 7 2 1 0 360 358 356
182 174 227 244 161 124 135 200 205 182 146 153 159 109 137 123 135 138 130 131 137 149 151 161 204 279 276 243 196 214 46 36 26 12 15 18 10 9 5 3 4 0 0 360 358 355 356 356 357
167 181 183 162 156 149 112 154 201 183 167 169 162 26 57 136 142 145 133 135 143 147 157 199 273 254 191 137 107 63 44 40 44 38 27 15 9 359 358 358 353 349 352 353 348 347 348 347 346
179 186 175 154 155 143 126 214 186 191 223 172 136 60 49 135 144 149 147 154 153 162 227 259 258 151 94 91 88 92 83 77 59 41 11 2 354 352 349 343 343 340 339 342 343 338 337 338 338
191 313 180 170 165 161 171 210 191 204 183 168 206 254 74 75 137 157 173 193 191 212 236 222 117 104 105 78 58 82 63 54 54 16 357 343 330 332 337 341 339 336 334 330 332 328 327 330 327
166 109 199 189 194 228 204 200 226 203 190 332 322 258 250 214 186 181 209 211 203 175 144 119 113 105 113 85 5 350 339 342 343 337 333 324 322 322 323 328 335 332 326 324 327 323 317 322 322
254 158 140 183 179 186 187 203 187 161 138 168 74 77 89 126 77 62 41 288 169 109 126 141 136 118 28 343 308 305 307 310 321 319 320 316 317 314 316 315 328 330 324 321 320 321 316 317 319
164 160 160 152 181 194 197 197 218 153 156 165 112 76 72 91 80 94 88 73 106 112 132 95 27 25 22 5 333 301 292 297 309 312 314 320 318 313 315 318 324 323 319 317 318 319 318 322 314
174 161 167 183 190 174 184 181 195 184 137 62 37 111 79 85 82 63 53 45 39 47 38 3 315 327 313 351 315 309 290 299 309 310 312 318 313 313 313 316 317 315 313 315 318 319 319 317 313
158 201 196 187 187 199 193 206 211 230 166 358 88 162 60 87 59 16 351 28 28 27 344 299 287 287 278 285 295 291 288 297 301 306 309 312 306 304 310 313 314 313 312 310 313 313 312 307 306
166 148 143 168 180 199 209 202 197 222 230 227 129 184 209 203 226 246 256 297 315 339 293 283 265 227 245 271 283 299 303 306 313 314 311 308 300 301 305 311 312 307 303 302 303 306 305 304 304
180 198 193 178 183 182 189 305 196 207 213 235 212 215 225 226 237 239 240 233 253 258 260 268 251 258 295 254 276 298 304 312 314 309 307 311 311 306 300 297 296 294 293 300 301 303 303 304 301
229 216 235 230 212 224 212 205 196 195 205 219 232 232 235 238 243 247 253 255 251 248 254 265 264 273 289 290 318 310 298 296 295 304 307 310 303 297 291 296 290 289 295 300 299 301 300 297 294
236 259 252 245 227 220 226 223 185 194 214 227 233 236 239 241 248 242 251 257 256 251 255 265 270 277 291 308 316 304 297 288 296 295 301 297 286 290 289 289 295 297 298 298 298 296 294 293 295
243 281 121 156 187 207 212 181 194 205 223 238 247 243 249 246 248 234 248 261 276 252 270 270 278 286 303 318 309 299 290 295 305 305 293 291 290 291 293 292 291 297 301 300 297 296 296 298 300
182 153 153 147 147 186 182 129 151 177 193 203 206 221 220 228 262 274 281 288 284 272 266 266 283 310 313 306 296 296 299 299 296 294 291 290 290 290 292 294 295 298 306 306 301 301 301 298 294
178 156 151 180 189 167 180 132 157 165 170 174 181 178 188 230 281 298 310 312 309 303 292 297 299 293 295 292 291 293 296 293 294 292 291 293 292 295 298 301 303 300 302 303 305 301 297 295 293
172 174 184 184 182 187 205 155 184 182 184 191 188 188 183 259 295 353 316 319 308 303 298 290 286 286 303 295 290 288 297 306 306 304 305 304 305 308 308 311 305 292 297 302 299 295 295 295 294
166 162 160 156 171 149 189 206 190 195 204 199 201 209 226 258 328 325 341 333 310 336 336 318 314 307 303 305 312 315 314 313 312 311 311 308 308 306 295 298 291 295 300 292 298 304 302 299 297
184 183 133 48 13 190 150 216 223 202 204 220 231 225 224 244 325 302 314 316 314 331 330 319 320 318 321 324 323 317 309 306 308 308 306 298 294 298 297 303 302 301 302 311 315 310 306 303 302
162 187 184 181 175 196 149 217 260 195 202 208 222 229 229 290 275 280 300 299 311 310 322 316 320 322 317 311 312 313 308 309 309 304 299 301 304 305 303 305 306 311 299 309 309 300 301 305 303
149 120 117 112 101 115 131 126 144 179 198 212 223 260 281 264 270 282 284 298 307 311 316 316 318 314 306 307 309 310 308 307 303 301 302 302 304 303 305 306 315 311 307 313 305 302 301 302 302
152 125 107 108 121 239 208 203 188 194 206 218 237 264 256 253 260 274 289 297 298 300 306 308 311 307 306 308 308 308 307 304 305 306 307 308 309 311 307 303 303 291 311 296 301 304 304 301 297
157 120 71 107 145 158 172 245 221 231 217 228 237 238 256 259 259 265 272 275 284 289 302 311 317 316 314 312 311 308 307 306 308 310 310 309 307 304 302 311 303 302 309 301 306 306 307 300 304
196 244 236 219 213 206 204 271 238 212 217 224 236 255 273 266 262 257 265 272 286 299 306 315 316 315 315 313 312 312 311 309 310 310 309 309 308 304 309 305 320 307 301 309 305 306 305 305 305
Height
3153 3152 3155 3158 3165 3160 3157 3159 3158 3155 3155 3156 3158 3160 3160 3159 3161 3165 3162 3163 3166 3170 3172 3175 3178 3179 3181 3182 3183 3182 3183 3183 3182 3182 3182 3181 3181 3179 3177 3176 3174 3172 3170 3168 3166 3163 3163 3161 3159
3153 3152 3154 3155 3158 3158 3157 3158 3159 3157 3157 3158 3163 3161 3163 3162 3162 3163 3161 3162 3166 3170 3172 3175 3178 3178 3180 3182 3182 3182 3182 3182 3182 3181 3181 3181 3179 3178 3178 3176 3175 3172 3171 3167 3165 3163 3163 3161 3159
3151 3153 3154 3153 3156 3156 3156 3155 3155 3156 3157 3161 3164 3165 3164 3161 3164 3163 3163 3164 3166 3169 3172 3175 3177 3178 3180 3181 3182 3182 3182 3181 3181 3180 3180 3179 3179 3178 3177 3176 3174 3173 3171 3169 3167 3165 3164 3161 3159
3150 3152 3155 3152 3152 3154 3157 3156 3155 3155 3158 3159 3161 3164 3166 3163 3162 3163 3163 3164 3167 3169 3172 3175 3177 3178 3180 3181 3181 3181 3181 3180 3180 3180 3179 3179 3178 3178 3177 3175 3174 3172 3171 3169 3166 3164 3163 3161 3158
3149 3151 3152 3151 3151 3150 3152 3157 3157 3156 3158 3157 3159 3165 3164 3161 3161 3162 3164 3165 3167 3170 3173 3175 3177 3179 3179 3180 3180 3180 3180 3180 3179 3179 3179 3179 3178 3178 3176 3175 3174 3172 3170 3169 3165 3164 3163 3161 3158
3149 3150 3151 3151 3150 3150 3154 3156 3156 3158 3159 3160 3160 3164 3163 3162 3163 3162 3164 3165 3168 3172 3173 3175 3177 3178 3179 3179 3179 3179 3178 3178 3179 3179 3178 3178 3178 3178 3178 3176 3174 3171 3169 3168 3165 3162 3160 3159 3157
3148 3150 3152 3151 3151 3153 3155 3157 3158 3157 3160 3160 3161 3162 3162 3161 3163 3164 3165 3167 3170 3172 3174 3175 3177 3178 3177 3178 3178 3178 3178 3178 3179 3179 3178 3178 3178 3178 3176 3175 3173 3171 3169 3167 3165 3161 3159 3158 3156
3149 3151 3151 3152 3152 3152 3154 3158 3158 3158 3159 3159 3160 3160 3160 3160 3162 3165 3166 3169 3171 3173 3174 3175 3177 3177 3177 3177 3177 3178 3178 3178 3178 3178 3177 3177 3178 3178 3176 3174 3173 3170 3168 3167 3165 3162 3159 3157 3155
3149 3150 3152 3151 3153 3156 3156 3156 3157 3158 3159 3159 3160 3160 3160 3160 3162 3165 3168 3170 3172 3173 3174 3175 3175 3175 3176 3177 3177 3177 3178 3177 3177 3176 3177 3177 3177 3176 3175 3174 3172 3170 3167 3166 3165 3162 3159 3157 3155
3147 3149 3152 3153 3152 3155 3157 3157 3156 3158 3158 3159 3160 3160 3159 3162 3163 3166 3168 3170 3172 3173 3173 3174 3175 3175 3176 3176 3177 3177 3177 3177 3177 3177 3176 3176 3176 3174 3173 3173 3170 3169 3165 3164 3162 3160 3158 3156 3154
3148 3148 3150 3152 3154 3156 3158 3157 3156 3157 3158 3159 3159 3160 3162 3163 3165 3167 3168 3170 3172 3173 3173 3175 3174 3174 3175 3175 3175 3176 3177 3177 3176 3177 3176 3175 3173 3171 3171 3169 3167 3166 3164 3162 3160 3158 3156 3153 3151
3148 3149 3150 3152 3153 3154 3156 3157 3158 3158 3159 3160 3161 3162 3161 3164 3165 3166 3168 3170 3172 3173 3173 3173 3172 3174 3174 3175 3175 3175 3175 3176 3174 3175 3174 3174 3172 3170 3169 3166 3164 3162 3161 3158 3156 3153 3152 3151 3148
3148 3149 3151 3153 3154 3156 3157 3157 3158 3158 3160 3160 3162 3163 3163 3165 3166 3168 3170 3171 3172 3173 3172 3172 3173 3173 3173 3174 3174 3174 3173 3173 3173 3171 3170 3170 3168 3166 3164 3162 3159 3157 3155 3153 3150 3148 3146 3144 3141
3148 3150 3151 3152 3154 3156 3157 3157 3158 3159 3160 3160 3161 3163 3164 3165 3167 3168 3170 3171 3171 3171 3173 3173 3174 3174 3174 3173 3174 3173 3171 3170 3169 3169 3167 3165 3164 3161 3159 3156 3154 3150 3149 3147 3145 3141 3139 3136 3133
3150 3152 3151 3152 3154 3155 3156 3157 3157 3159 3159 3161 3162 3164 3165 3166 3167 3168 3169 3169 3171 3172 3174 3174 3174 3173 3173 3172 3170 3169 3169 3168 3167 3165 3163 3161 3160 3158 3155 3152 3149 3146 3143 3141 3138 3135 3132 3131 3128
3150 3151 3152 3153 3155 3156 3158 3157 3158 3159 3160 3162 3163 3164 3165 3167 3168 3168 3169 3169 3171 3173 3174 3172 3168 3162 3165 3165 3165 3166 3165 3164 3162 3159 3158 3157 3155 3153 3150 3147 3144 3141 3138 3135 3132 3129 3126 3122 3119
3149 3150 3152 3154 3155 3155 3156 3155 3158 3159 3161 3162 3163 3163 3165 3165 3166 3167 3169 3169 3170 3172 3172 3170 3165 3162 3162 3154 3161 3162 3161 3159 3158 3156 3154 3153 3151 3148 3145 3141 3139 3135 3132 3128 3124 3120 3115 3111 3108
3148 3149 3150 3151 3154 3154 3155 3156 3156 3158 3160 3161 3161 3162 3163 3164 3165 3166 3168 3170 3170 3170 3170 3169 3168 3164 3161 3163 3158 3160 3159 3157 3155 3154 3152 3149 3146 3143 3140 3136 3132 3127 3123 3119 3114 3109 3106 3102 3097
3147 3147 3146 3147 3150 3153 3154 3155 3155 3157 3159 3160 3160 3160 3161 3162 3163 3165 3167 3169 3170 3169 3170 3167 3165 3162 3161 3160 3158 3156 3155 3153 3152 3150 3147 3144 3140 3136 3132 3127 3124 3119 3113 3108 3103 3099 3095 3093 3088
3146 3145 3143 3144 3148 3150 3152 3153 3154 3158 3160 3159 3158 3159 3159 3160 3160 3163 3166 3168 3169 3167 3166 3165 3163 3160 3159 3157 3155 3153 3152 3150 3147 3144 3142 3138 3133 3129 3125 3120 3115 3109 3104 3099 3093 3089 3085 3082 3077
3146 3145 3144 3145 3147 3150 3150 3155 3157 3158 3158 3158 3159 3159 3159 3161 3164 3165 3166 3166 3165 3165 3164 3161 3159 3157 3156 3154 3153 3151 3148 3145 3142 3139 3134 3130 3125 3120 3115 3110 3104 3098 3093 3088 3084 3080 3076 3072 3069
3145 3145 3145 3146 3147 3150 3151 3159 3159 3158 3158 3160 3160 3161 3162 3164 3164 3163 3162 3161 3160 3160 3159 3158 3157 3156 3154 3152 3149 3146 3144 3141 3137 3133 3128 3123 3116 3111 3105 3099 3093 3088 3083 3078 3075 3069 3064 3060 3056
3146 3146 3146 3147 3148 3149 3151 3153 3156 3158 3158 3159 3160 3162 3162 3165 3162 3161 3161 3160 3159 3158 3158 3156 3154 3152 3150 3148 3145 3142 3139 3134 3129 3123 3117 3111 3105 3100 3093 3088 3083 3078 3073 3068 3064 3060 3054 3049 3045
3144 3146 3147 3147 3148 3150 3150 3151 3154 3151 3154 3156 3159 3160 3161 3162 3160 3160 3159 3158 3156 3155 3154 3152 3151 3149 3146 3142 3138 3134 3129 3123 3117 3111 3106 3100 3095 3090 3085 3080 3075 3069 3063 3058 3053 3048 3043 3038 3033
3143 3144 3146 3149 3150 3149 3148 3149 3146 3149 3152 3157 3159 3158 3158 3159 3157 3157 3156 3155 3153 3151 3150 3149 3146 3143 3139 3135 3131 3127 3121 3115 3109 3102 3096 3090 3086 3081 3075 3068 3061 3056 3051 3045 3040 3036 3032 3028 3024
3141 3142 3141 3147 3151 3146 3146 3145 3145 3148 3152 3155 3155 3155 3157 3156 3153 3153 3153 3151 3150 3148 3145 3143 3140 3135 3131 3127 3122 3116 3110 3104 3097 3091 3083 3078 3074 3069 3063 3057 3052 3047 3040 3035 3031 3026 3021 3017 3011
3141 3141 3142 3142 3145 3145 3147 3146 3147 3148 3150 3150 3151 3151 3151 3150 3148 3147 3146 3145 3143 3142 3140 3139 3135 3130 3125 3120 3114 3108 3100 3094 3088 3082 3076 3070 3064 3058 3052 3047 3041 3035 3028 3024 3020 3015 3011 3005 3000
3142 3143 3143 3142 3147 3151 3146 3145 3143 3144 3146 3148 3149 3148 3147 3146 3144 3143 3142 3140 3138 3138 3136 3133 3129 3125 3119 3112 3105 3098 3091 3084 3077 3071 3065 3058 3051 3045 3040 3036 3033 3026 3021 3016 3011 3007 3002 2997 2992
3143 3141 3142 3143 3143 3144 3148 3141 3140 3141 3142 3144 3145 3144 3143 3143 3142 3139 3137 3137 3135 3132 3129 3126 3120 3114 3108 3102 3095 3089 3082 3075 3068 3061 3055 3048 3042 3036 3032 3027 3023 3019 3013 3008 3004 2999 2994 2990 2985
3141 3141 3141 3142 3143 3142 3142 3140 3137 3139 3141 3141 3142 3142 3140 3139 3137 3135 3134 3132 3128 3127 3124 3119 3113 3106 3099 3093 3086 3078 3071 3066 3061 3055 3048 3041 3034 3028 3024 3018 3013 3009 3004 3001 2996 2991 2987 2982 2978